Regional Weather Roundup
Issued by NWS

Home | Current Version | Previous Version | Graphics & Text | Print | Product List | Glossary On
Versions: 1 2 3 4 5 6 7 8 9 10 11 12 13 14 15 16 17 18 19 20 21 22 23 24 25 26 27 28 29 30 31 32 33 34 35 36 37 38 39 40 41 42 43 44 45 46 47 48 49 50
000
ASUS43 KOAX 270202
RWRNE

WEATHER ROUNDUP FOR NEBRASKA
NATIONAL WEATHER SERVICE OMAHA NE
900 PM CDT THU MAR 26 2015

NOTES: SATELLITE DATA IS BEING USED TO AUGMENT CLOUD COVER ABOVE
       12000 FEET.
       "FAIR" INDICATES FEW OR NO CLOUDS BELOW 12,000 FEET WITH NO
       SIGNIFICANT WEATHER AND/OR OBSTRUCTIONS TO VISIBILITY.

  * THESE STATIONS DO NOT REPORT WEATHER SUCH AS RAIN...SNOW OR FOG.

NEZ001>004-019>022-054>056-270300-
NEBRASKA PANHANDLE

CITY           SKY/WX    TMP DP  RH WIND       PRES   REMARKS
SCOTTSBLUFF    CLOUDY    46  34  62 NE5       30.14R
ALLIANCE       MOCLDY    40  28  62 NE7       30.13R
CHADRON        CLOUDY    43  30  60 E3        30.14R
KIMBALL        MOCLDY    40  30  65 NE6       30.12R
SIDNEY         CLOUDY    46  32  58 N12       30.14R
$$

NEZ057>060-069>072-079>082-270300-
SOUTHWEST NEBRASKA

CITY           SKY/WX    TMP DP  RH WIND       PRES   REMARKS
NORTH PLATTE   CLOUDY    40  29  64 NE13      30.16R WCI  32
IMPERIAL         N/A     46  29  51 NE12      30.12R
MCCOOK         MOCLDY    50  28  42 N21G29    30.12R
$$

NEZ005>010-023>029-035>040-094-270300-
NORTH CENTRAL NEBRASKA

CITY           SKY/WX    TMP DP  RH WIND       PRES   REMARKS
VALENTINE      CLOUDY    35  27  72 NE6       30.20R WCI  30
AINSWORTH      CLOUDY    34  29  80 NE7       30.21R WCI  28
BROKEN BOW     MOCLDY    34  28  79 NE8       30.17R WCI  27
ORD            CLOUDY    34  27  75 N12       30.19R WCI  25
$$

NEZ041-046>049-061>064-073>077-083>087-270300-
SOUTH CENTRAL NEBRASKA

CITY           SKY/WX    TMP DP  RH WIND       PRES   REMARKS
GRAND ISLAND   CLOUDY    34  30  85 NE14      30.20R WCI  25
HASTINGS       CLOUDY    35  31  85 NE17G25   30.16R WCI  25
HEBRON         CLOUDY    37  33  87 NE18G28   30.14R WCI  26
KEARNEY *      CLOUDY    36  28  75 NE20      30.19R WCI  25
$$

NEZ011>018-030>034-042>045-270300-
NORTHEAST NEBRASKA

CITY           SKY/WX    TMP DP  RH WIND       PRES   REMARKS
NORFOLK        PTCLDY    33  31  92 N8        30.19R WCI  26
ALBION         CLOUDY    33  29  88 N6        30.20R WCI  27
BLAIR          CLOUDY    35  32  89 N7        30.16S WCI  29
COLUMBUS *     MOCLDY    34  25  69 N8        30.21R WCI  27
TEKAMAH        CLOUDY    33  30  88 NW17      30.19R WCI  22
$$

NEZ050>053-065>068-078-088>093-270300-
SOUTHEAST NEBRASKA

CITY           SKY/WX    TMP DP  RH WIND       PRES   REMARKS
LINCOLN        LGT SNOW  34  33  96 NE8       30.18R FOG     WCI  27
OMAHA EPPLEY   CLOUDY    36  33  89 N8        30.18R WCI  30
FALLS CITY     LGT RAIN  37  34  89 N13       30.15R WCI  29
PLATTSMOUTH    CLOUDY    34  32  92 N7        30.17R WCI  28
$$

NEZ044-045-051>053-067-270300-
OMAHA AREA

CITY           SKY/WX    TMP DP  RH WIND       PRES   REMARKS
OMAHA EPPLEY   CLOUDY    36  33  89 N8        30.18R WCI  30
BLAIR          CLOUDY    35  32  89 N7        30.16S WCI  29
OFFUTT AFB     LGT RAIN  36  32  87 N9        30.17R WCI  29
PLATTSMOUTH    CLOUDY    34  32  92 N7        30.17R WCI  28
$$


USA.gov is the U.S. government's official web portal to all federal, state and local government web resources and services.